User: anonymous   Login
Location: Équennes
(49.7375°N, 1.9622°E)
Time: 14:49:24
(UTC+00:00)
Language:

FENGYUN 1C DEB - Orbit

View from above orbital plane
View from above orbital plane
View from above satellite
View from above satellite

Ground track
Ground track

The orbit data is extracted from the following two-line orbital elements,

1 30090U 99025QT  24193.30024740  .00000591  00000-0  26000-3 0  9992
2 30090  99.3578 321.7573 0060941 156.9273 266.7512 14.26606131908675
Epoch (UTC): 11 July 2024 07:12:21
Eccentricity: 0.0060941
inclination: 99.3578°
perigee height: 759 km
apogee height: 847 km
right ascension of ascending node: 321.7573°
argument of perigee: 156.9273°
revolutions per day: 14.26606131
mean anomaly at epoch: 266.7512°
orbit number at epoch: 90867

The dashed part of the orbit path shows where the satellite is in the earth's shadow,  

DLR